FLOCK 4Q 30

导读

FLOCK 4Q 30是美国发射的一颗对地观测小卫星,于北京时间2023年11月11日8时发射升空,属于Planet Labs公司Flock系列卫星。该卫星运行在近地轨道,主要用于高分辨率遥感成像,可提供全球对地观测数据,服务于环境监测、农业估产、城市规划、灾害响应与测绘等领域,延续了Flock系列卫星低成本、批量组网、高重访观测的技术特点,持续补充地球观测卫星星座的观测能力。

基本信息
目录编号:
58286
目录名称:
FLOCK 4Q 30
国际标识:
2023-174AG
轨道中心:
EARTH
卫星名称:
FLOCK 4Q 30
卫星全名:
--
卫星状态:
在轨 (已飞行988 天)
发射日期:
2023-11-11 UTC
国别 :
美国 (US)
星等 :
--
轨道信息
数据来源 国际轨道数据
星历时间: 2026-07-26T13:36:01+0800
15小时前
查看轨道信息
半长轴: 6737.246km
偏心率: 0.0004646
轨道倾角: 97.389°
近地点辐角 244.585°
升交点赤经 301.500°
平近点角 115.493°
近地点: 355.978km
远地点: 362.24km
周期: 91.724分钟
每日圈数: 15.699261
详细信息
使用方式:
暂无
2D轨道图
3D轨道图
轨道高度分析图
轨道倾角分析图
轨道综合分析图
查看轨道综合分析图